Location: ??? ?????
(30.6482°N, 60.5850°E)
Time: 05:47:20
(UTC+00:00)

MSX - Pass Details

Date: 09 April 2020
Orbit: 895 x 905 km, 98.8° (Epoch: 05 June)

Event Time Altitude Azimuth Distance (km) Brightness Sun altitude
Rises 23:23:27 0° 15° (NNE) 3,531 7.5 -27.6°
Reaches altitude 10° 23:25:52 10° 17° (NNE) 2,588 6.8 -27.2°
Maximum altitude 23:31:38 74° 102° (ESE) 942 3.9 -26.1°
Enters shadow 23:33:48 40° 178° (S) 1,308 4.4 -25.7°
